Theta_e
313 313 313 314 314 313 313 313 312 313 313 313 313 313 315 314 311 311 310 308 308 312 313 313 314 314 314 314 315 315 313 312 312 313 314 315 315 316 316 315 316 315 315 315 315 315 315 315 315 315 315 315 315 315 315 315 315 315 315 315 315 315 315 315 314 314 314 314 314 314 314 315 314 314 315 315 316 318 320 320 319 319 321 324 327 330
312 314 314 314 313 312 311 310 310 311 311 312 313 313 314 314 312 310 310 308 307 311 313 311 312 313 314 314 315 315 314 313 314 314 315 315 315 316 316 315 315 315 315 316 316 315 315 315 315 315 315 315 315 315 315 315 315 315 315 315 315 315 315 315 315 315 314 314 315 314 314 314 314 315 315 315 315 317 318 318 318 318 320 323 325 325
313 314 314 311 309 309 308 309 311 312 312 313 313 313 313 313 312 309 309 308 307 311 314 311 312 314 315 315 315 316 315 315 314 314 315 314 314 315 315 315 315 315 315 315 315 316 316 316 315 315 315 315 315 315 315 315 315 315 315 315 315 315 315 315 315 315 315 315 315 315 315 314 314 315 315 315 315 315 316 316 317 318 319 322 323 321
313 313 311 308 308 309 309 309 311 312 312 313 314 313 313 314 313 311 311 309 307 308 311 312 313 315 315 315 315 314 313 313 312 312 313 313 314 314 315 315 315 315 315 315 315 315 315 315 315 315 315 315 315 315 315 315 316 315 315 315 314 315 315 315 315 315 315 315 315 315 315 315 315 315 315 315 316 316 316 316 316 317 318 319 321 321
313 309 305 306 308 311 311 310 312 312 312 314 316 316 316 315 314 313 311 309 308 308 308 311 313 314 315 314 314 312 308 308 309 309 311 311 311 312 313 313 313 314 314 314 315 314 314 314 314 314 315 315 315 315 316 315 315 315 314 314 314 315 315 315 315 315 315 315 315 315 315 315 315 315 316 316 316 316 316 316 316 317 318 320 323 324
312 305 303 307 309 312 312 311 313 314 312 313 315 317 317 315 314 313 312 311 312 312 310 310 311 312 314 314 314 312 310 311 310 309 310 310 310 310 311 312 312 312 313 313 314 314 314 314 314 314 314 314 315 315 315 314 314 313 313 313 314 315 315 315 315 315 315 315 315 315 315 315 315 315 316 316 316 317 317 317 317 318 319 321 323 324
308 303 305 309 311 314 314 312 315 316 313 312 314 316 316 315 317 316 314 314 314 313 309 308 311 312 314 315 314 312 312 314 312 310 311 311 311 312 312 312 312 312 312 313 313 313 313 314 314 314 314 314 314 314 313 313 313 313 313 314 314 315 315 315 316 316 316 316 315 315 315 315 315 316 316 316 317 317 317 317 318 318 319 320 320 321
306 305 307 311 312 314 313 313 315 314 312 314 314 315 316 316 319 319 316 314 313 312 311 311 313 312 312 314 314 311 312 314 313 311 312 313 312 313 313 313 313 313 313 313 313 313 313 313 313 313 314 314 313 314 313 313 313 313 313 313 314 315 315 315 316 315 316 316 315 315 315 315 315 316 316 316 316 316 316 317 317 317 317 318 319 319
308 309 310 311 312 312 314 315 314 313 314 315 310 312 314 315 318 317 315 313 311 311 312 313 313 311 311 314 314 310 311 313 313 312 312 313 312 311 313 314 313 312 313 313 313 313 312 312 313 313 314 314 314 314 314 314 314 314 313 313 314 314 315 315 315 315 315 315 315 315 315 316 316 316 316 316 316 316 316 315 316 316 316 316 317 318
309 310 309 310 313 313 312 310 310 315 316 311 307 310 313 313 314 315 313 312 311 311 313 312 311 310 311 315 315 311 311 313 313 312 312 313 311 310 312 314 314 312 311 312 312 312 312 313 313 314 315 315 315 315 315 315 314 314 314 313 314 314 314 315 315 315 315 315 315 316 316 316 316 316 316 316 316 315 315 315 315 315 315 315 315 316
308 308 308 310 311 310 307 305 306 313 312 308 310 313 313 313 313 312 311 311 311 312 312 309 308 309 309 314 316 313 312 313 313 312 312 312 311 310 312 314 315 314 313 314 314 314 315 315 315 315 315 316 316 316 316 316 315 315 314 314 314 314 314 315 315 315 315 316 316 316 316 316 315 315 315 315 315 315 315 315 315 315 314 314 314 314
309 309 309 309 307 306 308 308 305 306 307 309 314 314 313 313 312 312 311 311 313 313 309 305 305 308 309 312 314 312 310 310 312 313 312 312 311 310 312 314 314 315 315 315 315 315 316 316 316 316 316 316 316 316 316 315 316 315 315 315 315 315 316 316 316 316 316 316 316 316 316 315 315 315 315 315 315 315 315 315 314 315 314 314 314 314
312 312 310 309 306 307 312 311 307 307 308 311 314 313 313 313 312 313 313 312 313 311 307 304 306 308 310 312 312 311 310 309 310 313 312 311 310 309 311 314 314 314 315 315 315 315 315 315 315 316 316 316 316 316 316 316 316 316 316 316 316 316 316 316 316 316 316 316 316 315 315 315 315 315 315 315 315 315 315 315 315 314 315 315 314 314
313 313 311 311 309 309 313 312 310 310 310 312 314 313 313 314 313 313 312 309 310 309 305 304 306 309 311 312 312 312 311 309 308 309 310 309 309 309 311 313 314 314 314 314 314 314 314 315 315 315 316 316 316 316 316 316 316 316 316 316 316 316 316 315 315 315 315 315 315 315 315 315 315 315 315 315 315 315 315 315 315 315 315 315 315 314
314 313 312 312 311 310 312 312 313 314 311 312 316 314 313 314 314 313 311 311 311 309 306 305 307 311 312 311 311 310 308 308 308 308 309 309 309 310 312 313 314 314 314 314 314 314 314 314 314 315 315 315 315 315 315 315 315 315 315 315 315 315 315 315 315 315 315 315 315 315 315 315 315 315 315 315 315 315 315 315 315 315 315 314 314 314
313 312 311 310 308 309 312 311 312 314 312 311 312 312 312 313 313 309 307 308 308 308 309 307 309 312 312 311 310 308 306 307 307 307 308 308 309 311 312 313 314 314 314 314 314 314 314 314 314 314 314 314 314 315 315 314 315 315 315 315 315 315 315 315 315 315 315 315 315 315 315 315 315 315 315 315 315 315 315 315 314 314 314 314 314 314
311 311 311 310 308 308 310 309 309 311 312 311 310 310 311 312 314 309 305 304 305 308 311 309 310 311 311 311 311 309 309 308 307 307 308 308 310 312 313 313 313 313 313 313 314 314 314 314 314 314 314 314 314 314 314 314 314 314 314 315 314 315 315 315 315 315 315 315 315 315 315 315 315 315 315 315 315 315 315 314 315 314 314 314 314 314
313 311 311 312 312 309 306 307 308 307 309 311 312 311 309 310 312 311 308 307 307 309 311 309 310 310 309 311 311 310 311 311 308 308 308 308 311 313 313 312 312 312 313 313 314 314 314 314 314 314 314 314 314 314 314 314 314 314 314 314 314 314 314 314 314 314 314 315 315 314 315 315 315 315 315 315 315 314 314 314 314 314 314 314 314 313
316 312 311 311 313 310 307 309 311 307 307 309 311 311 310 311 311 309 309 310 310 310 311 309 307 308 309 311 311 311 312 312 310 309 308 309 312 313 312 312 312 312 313 313 314 314 314 314 314 314 314 314 314 314 314 314 314 314 314 314 314 314 314 314 314 314 314 314 314 314 314 314 314 315 314 315 314 314 314 314 314 314 314 314 314 313
315 314 312 311 311 311 310 311 313 311 308 307 308 308 310 312 311 310 310 310 311 310 311 309 307 308 311 311 311 312 312 312 311 309 308 311 313 313 312 312 312 312 313 313 314 314 314 314 314 314 314 314 314 314 314 314 314 314 314 314 314 314 314 314 313 314 314 314 314 314 314 314 314 314 314 314 314 314 314 314 314 314 314 314 314 314
313 312 313 311 310 311 312 312 314 314 310 308 308 309 310 309 309 310 309 308 310 310 309 309 308 310 311 310 311 311 310 311 312 310 310 311 313 313 312 312 312 313 313 313 314 314 313 314 314 313 313 313 313 313 313 313 313 313 313 313 313 313 313 313 313 313 313 313 314 314 314 314 314 314 314 313 313 313 313 313 313 313 313 313 313 313
312 311 313 312 311 312 313 311 310 313 313 311 310 310 312 311 310 311 311 308 308 308 309 309 309 311 313 310 309 309 308 309 310 310 310 311 312 313 312 312 313 313 313 313 313 313 313 313 313 313 313 313 313 313 313 313 313 313 313 313 313 313 313 313 313 313 313 313 314 314 314 314 313 313 313 312 312 312 312 312 312 312 312 312 313 313
311 313 314 312 312 312 311 308 304 307 312 312 310 311 312 312 311 312 313 310 307 305 306 307 308 311 313 308 306 306 305 305 305 306 310 311 311 312 312 312 312 313 313 313 313 313 313 313 312 312 312 312 312 313 312 313 312 313 313 313 313 313 313 313 313 313 313 313 313 313 313 313 313 312 312 312 312 311 311 311 311 312 312 312 312 312
311 314 314 311 311 312 310 308 306 307 311 310 310 311 311 312 313 312 311 311 308 307 307 308 308 312 313 307 304 304 303 303 303 304 308 311 311 311 311 311 312 312 312 312 313 312 312 312 312 312 312 312 312 312 312 312 312 313 313 313 313 313 313 313 313 313 312 312 312 312 312 312 312 312 312 312 311 311 311 311 311 311 311 311 311 311
311 314 315 312 312 312 312 311 311 310 310 310 312 311 311 313 313 309 308 309 310 310 310 310 310 312 312 308 306 304 303 305 304 304 308 311 311 310 310 311 311 312 312 312 312 312 312 312 312 312 312 312 312 312 312 313 313 313 313 313 313 313 312 312 312 312 311 311 312 312 311 311 311 311 311 311 310 310 309 309 308 308 308 308 308 309
313 316 314 313 314 314 314 314 314 314 311 311 313 313 311 312 312 310 310 309 310 310 310 311 312 311 310 308 308 308 307 308 306 304 307 310 310 310 310 311 311 311 312 312 312 312 312 312 312 312 312 312 312 312 312 312 312 312 313 312 312 312 312 312 311 311 311 311 311 311 311 311 310 310 310 309 308 307 306 306 305 305 305 305 305 305
315 316 313 313 314 314 314 315 316 317 314 313 316 315 313 312 312 313 312 310 311 310 309 311 313 312 310 308 309 310 309 309 307 305 307 309 310 310 310 310 310 311 312 312 312 312 311 312 312 312 312 312 312 312 312 312 312 312 312 312 312 312 311 311 311 311 311 311 311 311 310 309 309 308 307 307 306 305 304 304 303 303 303 303 303 303
316 314 312 314 314 314 316 317 317 317 315 315 316 315 313 312 311 313 313 312 313 311 310 312 314 312 312 310 310 311 310 310 309 307 308 310 310 310 310 310 310 311 311 312 312 312 311 312 312 312 312 312 312 312 312 312 312 312 311 312 311 311 311 311 310 310 310 309 309 309 308 307 306 306 305 305 304 304 303 303 303 302 302 302 302 302
314 312 313 314 313 314 316 317 317 316 315 315 316 314 313 312 312 313 313 314 314 312 312 314 314 313 312 311 312 312 310 310 309 308 309 310 310 310 310 310 310 311 311 312 311 311 311 312 312 312 311 311 311 311 311 311 311 311 311 311 310 310 310 309 309 308 307 307 307 306 306 305 305 304 304 304 304 304 303 303 303 302 302 301 301 300
312 313 315 313 312 313 315 315 316 316 315 315 316 315 313 312 312 313 313 314 314 313 313 316 316 314 312 311 313 312 310 309 309 308 309 310 310 310 310 311 311 311 312 311 311 311 312 311 311 311 311 311 311 311 310 311 310 310 310 310 309 308 307 307 306 306 305 305 305 304 304 304 304 303 303 303 303 303 303 302 302 301 300 300 299 299
310 315 316 313 311 312 314 314 314 314 314 314 315 315 313 312 312 312 312 314 314 313 314 315 316 314 311 311 311 310 308 308 308 308 309 310 310 310 311 311 311 311 312 311 311 312 311 311 311 311 310 310 310 310 310 310 309 309 308 307 306 305 305 305 304 304 304 304 303 303 303 303 303 303 303 303 302 302 301 300 300 299 298 298 298 298
310 313 314 312 311 313 314 313 311 311 312 312 313 313 312 312 312 311 312 313 313 313 313 314 314 312 310 310 310 308 306 307 309 309 309 310 310 311 311 311 311 311 312 312 312 312 311 310 310 310 310 309 309 309 308 308 307 307 306 305 304 303 303 303 303 302 302 302 302 302 302 302 302 302 302 301 300 300 299 298 298 297 297 297 297 297
311 312 312 311 311 313 312 309 310 311 311 311 312 312 312 312 312 312 312 313 313 313 313 313 313 312 310 310 311 310 308 308 309 310 310 310 310 310 311 311 311 311 312 312 311 311 310 310 309 309 308 308 307 307 306 306 305 304 303 303 302 302 301 301 301 301 301 301 302 302 302 302 301 300 300 299 298 297 297 297 296 296 296 296 296 296
313 313 312 311 312 314 309 308 310 311 310 311 313 313 313 313 312 312 312 312 312 312 312 312 312 312 312 311 311 311 310 309 310 310 311 311 310 310 310 311 311 311 311 311 311 310 310 309 308 307 307 306 306 306 305 304 303 302 301 301 301 300 300 300 300 300 301 301 301 301 300 299 299 298 297 297 297 296 296 296 296 296 296 296 296 296
312 312 311 310 311 311 307 308 311 310 310 314 316 313 311 311 311 312 313 311 311 311 311 312 312 312 311 311 311 311 311 310 310 310 310 311 310 310 310 311 311 311 311 311 310 309 309 307 307 306 305 305 305 304 303 302 301 301 300 299 299 299 299 300 300 300 300 300 299 298 298 297 297 296 296 296 296 296 296 295 295 295 295 295 295 295
311 311 310 309 309 309 307 308 311 312 312 315 315 311 309 310 310 312 313 312 310 310 311 311 311 311 311 310 309 310 310 309 309 309 309 309 309 309 310 311 311 311 311 310 309 308 307 306 305 305 304 303 302 301 300 299 299 299 298 298 298 299 299 300 300 299 299 298 297 297 296 296 296 296 295 295 295 295 295 295 295 295 295 295 295 295
310 310 310 310 310 310 309 309 311 312 313 315 314 311 309 310 310 311 312 312 310 310 310 310 310 311 311 309 307 307 308 308 309 309 309 308 308 308 309 310 311 311 310 309 308 306 305 304 303 302 301 300 299 298 298 298 297 297 297 298 298 299 299 299 298 298 297 297 296 296 296 296 295 295 295 295 295 295 295 295 294 295 294 295 295 295
310 311 312 311 310 310 310 310 311 312 312 313 315 313 309 308 310 310 311 312 311 310 310 310 310 310 310 308 306 306 307 309 310 311 309 309 309 308 308 308 309 310 308 307 305 304 302 302 301 300 299 299 298 297 297 297 297 297 298 298 299 298 298 298 297 297 296 296 296 295 295 295 295 295 295 295 295 294 294 294 294 294 294 294 294 294
312 312 312 312 311 311 311 311 312 312 312 313 316 315 309 307 309 310 310 311 312 310 309 309 310 310 310 308 305 306 308 310 311 311 310 309 309 308 307 308 308 307 306 304 303 302 301 300 299 299 298 297 296 296 296 297 297 297 298 298 298 297 297 297 296 296 296 295 295 295 295 295 294 294 294 294 294 294 294 294 294 294 294 293 293 293
311 311 311 311 312 312 311 312 311 312 314 316 316 313 308 307 309 311 311 313 311 310 309 309 309 309 309 308 306 307 310 311 311 311 310 310 309 308 307 308 307 305 303 301 300 300 299 298 297 297 296 296 296 296 296 297 297 297 297 297 297 296 296 296 296 295 295 295 295 294 294 294 294 294 294 293 293 293 293 293 293 293 293 293 292 293
312 311 311 311 312 312 312 313 312 312 317 318 313 307 306 308 310 313 314 314 311 310 310 309 309 310 309 308 307 308 309 309 309 310 309 309 308 307 306 306 305 303 301 299 298 297 297 296 296 295 295 295 296 297 297 297 297 296 296 296 296 296 296 295 295 295 294 294 294 294 293 293 293 293 293 292 292 292 292 292 292 292 292 292 292 292
313 312 312 312 312 312 313 313 313 314 316 315 309 305 306 310 313 313 313 312 311 312 312 310 310 311 310 308 307 308 308 307 308 308 308 307 307 306 304 303 302 300 298 297 296 296 295 295 295 295 296 296 297 297 296 296 296 296 296 296 296 295 295 295 294 294 294 293 293 293 293 292 292 292 291 291 291 291 291 291 291 291 291 291 291 291
313 313 313 313 313 313 313 313 314 315 314 310 308 307 308 311 313 313 310 309 310 312 311 311 310 310 309 307 307 307 307 307 307 307 307 306 306 305 303 301 300 298 297 296 295 294 294 295 295 296 296 296 296 296 296 296 295 295 295 295 295 294 294 294 293 293 293 292 292 292 291 291 291 290 290 290 290 290 290 290 290 290 290 290 290 290
313 314 314 313 313 314 314 315 315 314 310 309 311 312 310 309 311 311 310 309 309 310 311 311 310 310 309 308 307 306 306 306 306 306 306 305 304 304 302 300 299 297 296 295 294 294 295 295 296 296 296 296 296 295 295 295 295 294 294 294 294 293 293 293 292 292 291 291 291 291 290 290 290 290 290 290 290 290 290 290 290 290 290 290 290 290
312 312 312 313 314 313 313 313 313 310 308 309 311 311 310 309 309 310 311 310 310 310 310 310 310 310 309 309 308 306 306 306 306 306 305 304 303 302 301 298 297 296 295 295 295 295 295 295 296 296 296 295 295 295 294 294 294 294 293 293 293 293 292 292 291 291 290 290 290 290 290 290 290 290 290 289 289 289 289 290 289 290 289 289 289 289
308 307 309 311 313 312 311 310 308 305 306 308 309 309 309 309 309 309 310 310 310 310 310 310 310 309 309 309 308 306 306 306 305 304 304 303 302 301 299 297 295 295 295 295 295 295 295 295 295 295 295 294 294 294 294 294 294 293 293 293 292 292 291 291 290 290 290 289 289 289 289 289 289 289 289 289 289 289 289 289 289 289 289 289 288 288
306 305 308 310 311 312 313 312 309 307 307 307 308 308 308 308 309 309 309 309 310 310 310 309 309 309 308 308 308 307 306 306 305 303 302 302 301 299 297 296 295 295 295 295 295 295 295 294 294 294 294 294 294 294 293 293 293 293 292 292 291 291 290 290 289 289 289 289 289 289 289 289 289 289 289 289 289 288 288 288 288 288 288 288 288 288
307 306 309 310 310 310 311 309 306 305 305 306 307 308 308 309 310 309 309 310 309 309 309 309 309 308 308 308 308 307 307 305 305 303 302 300 299 297 296 295 295 295 295 295 295 295 294 294 294 294 294 294 294 293 293 293 292 292 291 290 290 290 289 289 289 289 289 289 289 289 289 289 289 288 289 288 288 288 288 288 288 288 288 288 288 288
306 307 308 310 310 309 308 304 302 303 305 305 306 308 310 310 310 310 310 310 309 309 309 309 308 308 308 307 307 307 307 305 304 304 302 299 297 296 295 295 295 295 295 295 295 294 294 294 294 294 294 293 293 292 292 291 291 290 290 289 289 289 289 289 289 289 288 289 288 288 288 288 288 288 288 288 288 288 288 288 288 288 288 288 288 288
305 307 307 308 308 309 309 306 304 306 308 307 307 309 310 310 309 309 309 309 309 308 308 308 308 307 307 307 307 307 307 305 303 302 300 298 296 296 295 295 295 295 295 295 295 294 294 294 294 293 293 292 292 291 290 290 289 289 289 289 289 289 288 288 288 288 288 288 288 288 288 288 288 288 288 288 288 288 288 288 288 287 287 288 288 288
304 306 306 307 308 308 308 307 305 307 308 308 307 308 309 309 309 309 309 309 309 308 308 308 308 307 306 306 306 306 306 305 303 300 298 297 296 295 295 295 295 295 295 295 295 294 294 293 293 292 292 291 290 290 289 289 289 288 288 288 288 288 288 288 288 288 288 288 288 288 288 288 287 287 287 287 287 287 287 287 288 288 288 287 286 287
Wind_Speed
5 5 6 7 8 10 9 4 3 3 3 8 7 3 3 4 2 1 2 2 1 4 6 6 8 11 12 11 12 12 10 12 16 18 21 24 23 20 19 20 21 20 21 20 20 21 23 24 24 24 25 25 25 25 25 25 25 24 24 24 24 23 24 24 24 24 24 24 24 24 23 23 23 22 22 22 20 20 21 23 24 23 23 23 24 26
4 7 7 4 3 6 6 5 6 5 5 6 6 5 3 2 1 1 1 2 1 3 2 1 6 12 12 12 14 13 9 11 15 16 18 21 22 21 20 21 22 21 21 20 19 19 20 22 23 24 25 26 26 25 25 25 24 24 24 24 24 24 25 25 25 25 25 25 24 23 22 22 22 22 22 23 21 21 22 23 23 22 22 23 24 26
5 7 4 5 6 8 6 3 6 6 5 4 3 4 3 1 2 2 1 2 1 2 1 1 4 10 11 11 13 14 12 12 15 18 18 18 20 21 21 21 22 23 23 23 21 20 20 21 22 24 25 25 26 26 25 25 25 24 24 23 24 25 25 25 26 26 25 24 24 22 21 21 22 22 22 22 21 21 21 20 19 20 21 21 22 23
6 4 4 8 9 10 5 2 6 6 3 2 2 4 2 1 2 2 3 3 1 1 2 2 5 9 8 9 10 12 12 14 17 20 21 22 22 24 24 24 25 25 25 25 24 23 23 23 24 25 25 25 26 27 27 26 26 25 24 25 26 26 25 25 26 25 25 24 24 22 21 21 22 21 21 21 21 21 20 19 18 19 19 20 20 20
3 2 4 7 7 8 7 4 6 6 3 0 2 3 2 3 2 1 4 4 1 1 1 2 6 7 4 6 7 4 5 10 13 14 14 16 19 21 23 24 25 26 27 28 27 26 26 26 27 28 27 27 27 28 28 28 27 27 27 27 27 27 27 26 26 25 25 25 25 23 22 21 21 21 20 20 19 19 17 17 17 17 17 19 20 20
1 2 6 8 4 5 7 5 6 6 4 2 4 3 2 5 6 4 5 4 2 3 1 2 6 4 1 3 5 0 2 4 5 5 6 7 10 13 15 16 18 21 23 25 25 24 25 27 29 30 30 28 28 29 30 30 29 28 27 27 27 27 27 26 26 25 26 26 25 23 22 21 20 18 18 16 15 15 15 15 15 16 17 19 21 22
2 2 4 6 7 7 6 6 5 5 5 3 3 2 3 5 8 8 7 4 2 1 1 1 5 4 1 3 3 1 4 5 4 3 2 2 4 6 8 11 13 15 17 18 18 18 20 24 27 29 29 28 28 29 28 28 27 27 26 26 26 27 26 25 25 25 25 25 24 22 20 18 17 16 15 12 12 13 14 15 16 17 18 19 21 22
4 5 2 4 7 7 6 6 5 7 6 2 1 2 6 7 8 8 7 3 0 1 1 0 2 4 5 3 0 1 4 6 3 3 1 1 2 2 4 7 10 12 13 14 16 16 17 17 19 22 23 24 24 23 23 23 23 24 25 26 26 26 25 24 24 23 23 22 21 19 17 16 15 14 12 11 12 13 14 16 17 18 19 19 20 21
3 5 6 7 7 6 5 2 3 8 4 0 1 1 4 6 5 5 4 2 2 1 4 2 1 4 6 2 1 1 4 6 3 3 2 2 2 2 1 4 7 9 11 13 14 15 15 14 14 15 16 17 17 17 17 18 19 20 22 23 25 24 23 22 21 20 19 18 17 15 14 12 11 11 11 11 13 14 15 16 17 18 18 19 19 20
1 3 5 5 5 5 2 3 1 3 1 4 5 5 6 5 5 4 2 3 2 3 5 2 2 4 5 3 2 1 2 6 3 3 2 2 3 4 3 1 3 6 8 11 12 13 14 13 13 12 12 13 14 14 15 15 16 17 17 19 20 20 19 18 16 14 13 12 11 10 9 9 9 10 11 12 13 13 14 15 16 17 18 18 19 20
2 1 1 0 1 3 5 5 5 2 6 11 8 7 8 5 3 3 2 2 2 4 2 2 2 3 4 3 3 2 2 2 2 4 3 3 4 5 5 5 6 7 9 11 13 14 14 14 13 12 12 12 12 12 12 12 12 13 13 13 13 13 12 11 10 9 9 8 8 7 8 8 9 10 11 12 13 13 14 15 16 17 18 19 20 20
2 3 2 1 3 5 6 6 7 4 6 6 4 6 7 3 2 2 2 1 4 4 2 3 2 3 5 3 1 0 1 1 2 5 5 3 4 5 5 7 10 12 14 15 16 17 16 16 15 14 13 13 12 12 11 11 12 11 11 11 11 11 10 10 9 9 8 8 8 8 9 9 10 10 11 11 12 12 13 14 15 17 18 18 19 20
3 2 1 2 3 5 4 6 6 2 1 2 4 8 5 3 2 3 2 2 4 2 2 1 1 3 7 6 4 5 4 4 5 4 3 2 3 4 6 9 12 15 16 18 19 19 19 18 18 17 16 16 15 15 15 14 14 14 14 13 13 12 12 11 10 10 9 9 9 9 8 8 7 7 7 8 9 10 12 13 15 16 18 19 19 20
3 1 1 2 3 6 4 5 5 4 5 5 7 7 6 5 4 5 3 1 3 0 2 1 1 3 5 5 8 10 5 5 7 6 4 1 2 2 7 11 14 16 18 20 21 21 21 21 21 21 21 20 20 19 19 18 17 17 16 15 15 14 13 13 12 11 10 9 8 6 4 3 2 3 5 7 8 10 12 13 15 17 18 19 20 20
4 3 4 3 2 5 4 1 2 4 5 3 1 2 4 4 4 4 3 2 2 2 2 1 2 4 2 1 2 3 0 4 8 8 8 4 1 3 10 14 16 18 20 21 22 23 23 23 23 23 23 23 23 22 21 20 19 18 17 16 15 14 13 12 10 9 7 5 3 1 1 3 5 6 8 9 10 12 13 14 15 16 18 19 20 19
2 1 1 2 1 4 3 3 2 4 4 0 2 0 2 2 2 2 1 0 1 1 2 3 3 3 2 3 2 2 2 5 9 9 8 4 3 9 13 16 19 22 23 24 25 26 26 26 26 26 25 24 23 22 21 20 18 17 16 14 13 11 9 8 6 4 3 1 2 3 4 5 7 8 9 10 12 13 14 15 16 17 17 18 19 19
2 0 2 2 2 2 0 2 2 1 2 2 2 3 2 1 4 4 1 2 1 3 2 3 4 3 3 5 2 2 2 2 5 7 7 6 9 13 15 19 23 25 26 28 28 28 28 27 27 26 25 23 22 20 18 17 16 14 13 11 9 8 7 5 4 2 1 2 3 4 5 6 7 8 9 10 12 13 15 16 17 17 17 18 18 18
3 2 2 1 2 2 2 2 4 4 2 2 4 5 3 1 1 2 1 2 1 4 1 2 5 4 3 3 1 3 4 4 5 5 7 10 13 14 17 21 24 25 27 28 28 28 27 26 25 23 22 21 19 17 16 14 13 11 10 8 7 6 4 3 2 1 1 3 4 5 6 6 7 8 9 10 11 13 14 15 16 16 16 16 17 17
2 2 1 1 1 1 2 1 3 3 5 1 2 4 3 2 3 2 2 2 3 4 2 2 3 3 5 4 0 2 7 8 7 5 7 10 13 16 20 22 23 25 27 27 27 26 25 24 23 21 20 19 17 15 14 12 11 9 8 7 5 4 3 2 1 0 2 3 4 5 6 6 7 8 9 10 11 12 12 13 14 14 14 14 15 16
1 1 2 1 1 0 1 2 5 4 2 2 1 3 0 2 2 3 2 2 3 3 2 1 1 3 5 5 5 6 8 10 9 7 7 12 17 22 23 23 24 25 26 27 26 25 24 22 21 20 18 17 15 14 12 11 9 8 6 5 4 2 2 1 0 1 2 3 4 5 5 6 7 8 8 9 9 10 10 11 11 11 12 12 13 13
2 1 2 2 1 2 3 3 4 5 4 3 4 5 3 1 1 1 1 1 1 3 3 2 3 3 2 4 8 6 3 4 7 7 8 12 20 27 27 25 26 27 27 26 25 24 22 21 19 18 16 15 13 12 10 9 7 5 4 3 3 2 1 0 0 1 2 3 4 4 4 5 6 6 7 7 7 8 8 9 9 10 10 11 12 12
1 1 3 4 3 3 2 1 2 2 1 2 4 5 6 4 3 4 4 1 1 1 2 1 3 3 1 2 5 2 2 1 4 7 9 13 22 29 29 27 28 28 27 26 24 23 21 20 18 17 15 14 12 11 9 8 6 4 4 3 2 2 1 1 1 1 2 3 3 3 3 4 4 4 5 5 6 7 8 9 9 10 11 12 12 13
2 3 4 3 3 2 2 1 0 2 2 1 2 2 3 3 4 5 6 4 3 1 1 1 3 3 1 1 2 1 1 3 4 6 9 15 24 29 28 28 28 27 26 25 23 22 20 18 17 16 14 13 11 10 8 7 6 5 4 3 3 2 2 2 1 2 2 2 2 1 1 0 1 1 3 5 7 8 9 10 11 11 12 13 14 14
3 3 3 3 1 0 1 1 1 0 1 3 4 2 3 3 2 1 1 3 4 4 3 2 4 4 1 1 2 3 4 5 7 10 12 19 27 28 28 29 28 27 26 24 22 21 19 18 16 15 13 12 10 9 8 7 6 5 5 4 4 3 3 3 3 3 3 3 2 2 1 1 2 3 4 7 9 10 12 12 13 14 14 14 15 16
6 3 4 4 2 1 1 2 2 2 3 5 3 3 3 2 4 3 1 2 3 5 7 5 6 5 1 1 1 2 4 5 8 12 17 23 28 28 27 28 28 28 26 24 22 20 18 17 15 14 13 11 10 9 8 8 7 7 6 6 5 5 5 5 4 4 3 2 1 0 1 3 4 5 6 8 10 11 12 13 14 14 15 15 16 16
8 3 6 7 6 6 6 7 7 5 4 3 2 4 7 8 8 5 2 3 4 4 6 7 7 2 2 2 2 1 3 4 6 13 18 23 26 26 26 27 28 28 26 24 22 20 18 17 15 14 13 12 11 10 9 9 8 8 8 7 6 6 5 5 4 3 2 1 1 2 3 4 5 6 6 7 8 10 11 12 13 14 15 16 16 17
4 1 7 10 10 10 10 9 5 5 6 7 9 10 10 11 11 5 2 4 5 3 4 8 9 5 3 6 5 4 5 6 7 12 18 24 26 26 27 28 28 27 26 24 22 20 19 18 16 15 13 12 11 11 10 10 9 9 8 7 7 6 5 5 4 3 2 2 2 3 4 4 5 5 6 7 8 9 11 13 14 15 16 17 17 18
2 4 9 11 13 11 6 4 5 6 9 12 12 11 9 10 11 9 8 9 5 4 5 11 12 11 9 8 8 6 7 6 7 14 23 29 29 27 26 27 27 28 26 24 23 22 20 19 17 15 14 13 12 11 11 10 9 9 8 8 7 6 5 5 4 3 2 2 2 2 3 3 4 5 6 7 9 11 13 15 16 17 18 19 19 20
2 7 9 9 14 11 1 4 5 8 8 7 8 11 11 12 13 13 14 13 7 7 12 14 13 15 12 9 8 9 9 10 14 21 28 30 29 27 27 28 28 29 29 27 25 23 20 18 17 15 14 14 13 12 11 11 10 9 9 8 7 6 6 5 4 3 2 1 0 1 3 4 5 6 8 9 11 13 16 17 19 21 22 22 22 22
3 6 6 7 12 12 4 3 4 6 5 5 7 10 12 13 14 15 15 15 11 11 16 9 7 12 10 9 8 11 13 12 12 17 22 27 29 29 29 30 31 32 30 27 25 22 20 18 17 16 15 14 14 13 12 11 11 10 9 8 8 7 6 5 4 3 2 1 1 3 4 6 8 10 11 13 15 17 19 21 23 24 25 25 25 25
4 3 4 6 7 9 5 3 1 3 5 5 5 7 9 12 13 14 15 15 12 13 16 6 2 9 7 9 9 10 10 8 8 13 20 28 32 31 31 32 33 32 29 26 24 22 20 19 17 17 16 15 15 14 13 12 11 10 9 9 8 7 6 5 3 1 0 2 4 5 7 10 12 14 16 18 19 21 23 24 25 26 26 27 27 27
4 2 2 4 6 7 3 4 4 3 1 2 3 7 12 12 12 13 14 14 12 14 16 9 7 9 5 11 10 9 9 10 12 17 23 30 34 34 35 36 34 31 29 27 25 23 21 20 18 17 17 16 15 14 13 12 11 10 9 8 7 6 4 2 1 2 4 5 7 9 11 14 16 18 20 21 22 24 24 25 26 27 28 28 28 29
5 4 3 5 8 5 0 3 6 6 2 3 6 11 16 14 14 13 11 12 12 13 12 10 9 6 7 10 10 8 8 12 16 23 28 33 36 36 36 36 34 32 30 28 26 24 21 20 19 18 17 16 15 14 13 12 11 10 9 8 6 4 2 0 2 4 6 8 11 13 15 17 18 20 21 22 24 24 25 26 27 28 29 30 30 31
6 6 3 4 6 3 1 3 6 4 7 9 8 12 17 16 15 12 10 12 13 11 10 10 9 4 7 10 11 11 13 19 25 30 33 36 39 37 35 34 33 32 30 27 25 23 22 21 20 20 19 18 17 16 14 13 11 10 8 6 4 2 0 2 4 7 9 11 14 15 17 19 20 21 22 23 24 25 25 27 28 29 30 31 32 33
8 6 3 2 2 1 2 4 6 7 10 7 2 5 11 13 14 14 14 16 15 13 13 13 12 7 9 15 18 18 22 26 28 29 30 33 37 36 35 34 32 31 30 28 26 25 23 23 22 21 20 19 17 16 14 12 10 8 6 4 2 1 3 5 7 9 12 14 16 17 18 20 21 22 23 24 25 26 27 28 29 30 31 33 33 34
8 6 3 2 2 3 3 6 7 5 3 1 1 0 4 7 10 11 12 14 13 11 11 14 16 13 13 18 21 18 18 21 21 25 28 30 31 33 34 35 34 33 32 30 28 26 24 23 22 21 19 17 16 14 12 10 9 7 5 3 2 3 5 7 9 11 14 15 17 18 20 21 22 23 24 25 26 27 28 29 30 32 33 34 35 36
6 6 5 4 4 3 4 6 4 4 3 4 4 3 6 8 10 10 10 11 11 13 14 14 16 16 13 14 16 14 12 11 11 20 30 30 28 30 33 34 35 34 31 29 27 25 24 23 21 20 18 17 16 14 12 10 8 6 4 3 4 5 8 10 12 14 15 17 18 20 21 23 24 26 27 28 29 30 31 32 33 34 35 37 38 38
3 4 5 7 5 3 3 3 3 3 8 9 5 4 8 13 14 13 9 9 9 18 24 19 15 16 11 9 12 13 10 6 4 14 28 30 27 28 28 29 31 32 31 29 27 26 25 23 22 20 18 17 15 13 11 9 6 5 4 4 6 8 10 12 14 16 17 18 20 21 23 25 26 28 29 30 31 33 34 34 35 36 37 38 40 41
1 0 2 4 4 4 5 5 5 7 10 8 4 5 10 17 16 11 6 10 9 17 28 23 15 15 12 13 19 16 8 5 6 13 25 29 28 28 27 28 32 32 30 29 27 26 25 23 22 20 18 16 14 11 10 7 4 4 4 7 8 11 13 14 16 17 18 20 21 23 24 26 27 29 30 31 32 33 34 35 36 37 38 39 41 43
3 2 3 5 6 6 7 6 5 5 5 4 5 6 13 20 18 11 5 11 6 14 26 25 18 19 21 22 23 15 8 10 10 13 23 27 25 25 26 30 34 33 30 29 27 25 24 22 20 18 16 14 12 9 6 4 3 4 6 9 10 12 14 16 17 19 20 21 22 23 24 25 26 28 29 30 32 32 34 35 36 38 39 40 42 44
4 4 4 6 7 7 8 7 5 4 4 3 4 11 21 23 14 8 8 5 9 17 23 25 24 27 28 27 26 20 18 18 13 10 19 25 24 25 29 31 33 31 29 29 26 23 22 20 18 16 14 12 10 7 4 3 4 6 8 10 12 14 16 17 18 19 20 21 22 22 23 24 26 27 28 30 32 33 34 35 37 39 41 42 44 46
5 4 5 6 7 7 7 5 4 5 6 6 8 14 21 15 6 8 6 4 11 17 19 23 27 29 27 29 32 28 21 16 11 11 20 26 27 31 33 32 32 31 29 27 25 22 21 19 17 15 13 10 8 5 4 4 6 7 9 11 13 15 16 17 18 19 20 20 21 22 23 24 25 27 29 30 32 34 36 37 38 41 43 45 47 48
7 7 6 6 6 5 5 6 6 8 5 17 18 8 8 7 3 5 9 7 9 15 17 20 26 27 23 25 28 24 17 13 14 18 24 29 31 33 34 33 33 32 29 27 25 22 19 17 15 13 10 8 6 4 4 5 7 8 10 12 14 15 16 17 18 19 20 21 22 23 24 26 27 29 30 32 34 37 39 40 42 43 45 47 49 51
7 7 6 6 7 6 6 8 6 3 8 25 20 6 13 15 5 3 10 11 10 15 16 17 21 23 20 19 23 23 19 18 21 24 28 31 33 33 34 33 31 30 28 26 23 21 18 15 13 10 8 6 5 5 5 6 8 9 11 13 14 16 17 18 19 20 21 22 23 25 26 28 29 31 33 35 37 39 41 43 45 47 48 49 51 53
7 6 3 4 6 5 4 5 3 2 14 26 16 6 17 27 16 5 8 11 12 15 14 12 15 17 15 16 21 25 24 22 24 27 30 33 34 34 34 33 30 29 27 24 21 19 16 13 11 9 7 5 5 6 6 7 9 10 12 14 15 17 18 19 20 21 22 24 25 27 29 31 32 34 36 38 40 42 44 46 48 50 51 53 54 55
3 2 3 1 2 2 3 5 4 2 10 20 14 4 10 22 19 10 7 8 9 11 11 11 12 13 13 15 20 24 25 25 27 30 32 34 35 35 33 32 30 27 25 23 20 16 14 12 9 7 6 5 5 6 8 9 11 12 13 15 16 17 19 20 21 23 24 26 28 30 32 35 36 38 39 41 42 44 46 48 50 52 54 55 56 56
2 3 3 1 2 4 5 7 6 5 9 16 17 10 8 13 17 14 9 7 7 7 9 11 11 11 13 15 17 20 25 28 30 33 35 36 36 36 34 32 30 27 24 21 18 15 13 10 8 7 6 6 6 8 9 11 13 13 14 15 16 18 19 21 23 25 27 29 31 33 35 37 39 41 43 44 45 47 48 49 51 53 55 56 57 58
4 6 5 2 4 4 3 3 4 6 7 11 17 16 11 12 16 17 13 10 9 10 12 13 14 14 16 16 17 20 25 30 32 35 37 37 36 34 32 29 27 24 21 18 15 13 11 9 8 7 7 7 8 9 11 12 13 14 14 15 17 18 20 22 24 27 29 31 33 35 37 39 41 44 46 47 49 50 51 53 54 55 57 58 58 59
4 6 5 4 5 4 3 1 2 1 4 7 15 19 17 16 17 19 20 20 18 18 18 18 18 19 18 18 18 21 26 32 34 35 37 38 36 32 30 26 23 21 18 16 13 11 9 9 8 8 8 9 9 10 11 11 12 13 14 15 17 19 22 24 26 29 31 33 35 38 40 42 43 45 48 50 51 53 54 55 56 57 59 59 58 58
4 4 3 3 5 6 5 6 8 4 3 9 18 23 23 23 23 23 24 24 23 23 23 22 21 21 21 21 21 23 27 32 35 36 37 36 34 31 28 25 22 20 17 14 12 10 10 9 9 9 9 9 9 10 10 11 12 13 14 16 19 22 24 27 29 31 33 35 37 39 41 43 45 47 49 52 54 55 57 58 58 57 59 60 60 59
7 5 5 5 7 7 7 11 16 13 9 13 20 23 24 26 27 27 28 28 26 25 25 24 23 23 24 25 26 27 29 32 36 38 37 35 32 29 26 24 21 18 16 14 12 11 10 10 10 9 9 8 8 9 10 11 11 13 16 19 21 24 26 28 30 32 34 36 38 40 42 45 47 49 51 52 53 55 57 59 61 60 60 60 60 61
Wind_Direction
159 165 188 191 183 180 179 172 102 81 133 146 142 148 156 168 178 133 88 50 321 231 222 227 247 262 266 268 268 265 263 266 268 268 269 269 268 265 256 251 248 246 242 238 236 235 234 235 234 233 231 230 230 230 230 231 232 233 235 237 238 240 242 244 245 246 247 248 250 253 256 260 262 264 264 263 262 262 262 262 265 267 267 266 265 263
179 200 198 177 142 142 135 106 95 93 107 133 151 156 160 216 159 85 68 81 36 246 214 188 257 259 259 263 265 262 254 250 254 257 261 266 267 264 259 254 250 248 246 242 239 235 235 235 235 234 232 230 229 228 229 230 231 232 234 235 236 239 241 242 244 246 247 249 251 253 256 259 262 264 265 265 264 259 256 256 258 260 260 258 257 257
196 210 171 111 100 97 92 106 109 94 104 125 140 152 166 191 139 117 128 102 55 248 229 67 267 264 259 261 260 252 247 244 245 249 254 259 261 261 259 256 254 250 248 246 242 239 238 238 237 236 235 232 231 230 229 229 229 230 232 235 238 239 240 241 242 244 245 247 250 252 253 255 256 257 258 260 261 259 255 253 252 253 254 253 256 261
192 202 110 125 141 126 109 116 116 108 115 126 137 152 155 145 170 195 155 135 53 332 313 305 277 276 262 256 252 242 246 251 251 253 255 257 259 260 258 258 258 255 252 249 245 241 240 239 239 238 236 234 232 231 229 228 230 233 236 239 240 240 239 240 241 241 243 245 247 247 248 250 251 252 252 253 255 256 256 257 256 256 259 260 264 269
163 35 114 143 159 148 138 151 156 160 164 243 203 161 133 166 189 38 114 133 142 177 316 305 277 270 244 243 245 234 253 256 256 260 259 258 258 259 259 259 259 258 256 254 251 247 243 241 240 239 238 236 234 233 232 233 237 241 243 242 239 238 238 238 239 239 239 241 242 242 244 246 249 252 254 256 259 262 263 263 264 267 270 268 264 266
87 52 150 147 149 152 143 161 187 188 174 205 233 201 153 166 149 105 124 144 194 203 90 335 269 254 129 236 235 245 334 259 245 255 258 254 253 255 257 257 256 256 255 254 253 250 245 241 239 239 239 238 237 237 238 240 243 244 242 237 234 234 235 236 236 236 236 237 239 240 243 247 252 257 259 262 266 269 266 263 263 263 262 258 256 258
84 106 158 151 152 154 158 178 192 197 185 194 220 167 126 139 132 131 151 169 229 221 70 345 263 259 302 253 216 38 308 274 238 225 255 241 232 242 249 252 252 252 251 249 247 241 238 236 233 235 237 238 240 240 241 242 242 241 237 234 231 231 233 233 233 233 234 236 238 240 244 248 254 260 264 265 263 258 254 253 253 252 250 250 251 254
111 135 161 149 150 155 172 183 187 195 191 181 205 140 129 134 138 146 156 168 346 22 155 143 299 281 276 263 135 17 289 267 218 171 113 110 153 207 237 249 250 249 246 241 237 231 227 226 224 226 230 234 237 239 238 237 237 236 234 232 230 230 231 231 232 232 234 237 238 240 242 247 254 261 266 263 257 254 253 253 253 252 252 251 252 254
103 165 176 157 159 175 183 175 174 184 182 91 223 128 123 120 116 133 143 131 65 320 219 161 43 271 261 244 135 5 279 257 215 136 130 129 90 73 177 249 247 242 235 227 226 220 212 210 210 213 217 221 225 226 225 226 228 230 229 229 228 228 228 228 230 231 233 235 236 237 240 246 255 261 263 261 258 256 255 256 257 258 258 257 256 256
27 200 191 170 177 176 133 31 336 206 118 144 160 106 89 81 76 92 108 117 110 256 230 138 52 262 263 246 186 127 262 253 231 116 135 140 69 56 78 133 210 209 207 202 199 195 191 190 192 196 200 204 208 212 215 217 219 220 221 221 222 222 223 223 224 224 226 227 226 230 237 245 251 253 254 254 256 257 257 259 259 260 260 259 259 257
343 155 162 254 182 132 107 66 21 2 121 143 154 110 94 76 63 75 43 86 173 243 216 78 11 272 271 255 201 196 238 242 158 132 153 139 74 56 81 111 137 150 156 159 161 162 163 166 171 176 182 186 190 194 198 200 200 201 201 201 203 203 203 203 202 202 202 205 211 218 228 233 236 240 245 249 254 256 257 258 258 259 260 259 259 259
53 117 132 85 116 124 114 79 45 48 132 147 161 129 112 88 92 111 72 127 223 230 111 58 328 248 240 242 137 323 280 251 175 147 141 122 71 56 87 118 127 131 134 137 140 142 144 147 150 154 157 158 160 161 162 165 166 168 169 169 171 171 172 174 176 180 184 190 197 203 210 217 224 232 241 249 256 258 261 264 264 265 266 266 266 266
112 111 38 75 146 180 154 101 76 54 206 202 159 151 146 133 155 193 178 196 232 229 69 37 283 238 244 258 274 273 254 223 217 180 141 86 51 66 105 127 129 129 130 132 133 133 133 134 135 137 139 140 143 144 146 148 149 151 153 153 155 156 157 159 161 166 170 175 182 189 198 209 222 237 252 266 275 280 283 285 283 281 281 279 277 275
147 153 170 131 182 226 213 137 142 183 200 189 164 165 171 149 166 199 176 239 260 258 60 351 280 249 255 267 257 254 230 193 218 228 221 236 31 90 132 137 134 132 132 132 131 131 130 130 130 132 134 135 137 138 139 140 141 142 143 143 144 145 146 148 150 154 159 163 169 177 186 205 255 300 315 318 317 312 307 301 296 292 288 285 283 280
177 194 179 157 156 195 212 232 170 140 154 195 174 160 181 169 188 196 175 215 220 101 90 152 236 227 215 76 228 248 241 220 239 238 227 235 298 146 144 142 139 137 136 135 134 133 132 133 133 133 133 134 134 134 134 134 134 134 134 134 135 135 137 139 141 143 145 145 142 132 0 347 340 337 334 330 325 321 316 311 306 301 294 289 285 282
200 252 107 21 28 161 184 303 347 98 122 222 1 57 213 187 136 115 95 143 106 77 154 181 242 249 263 290 245 209 259 250 242 227 218 224 162 150 147 144 142 139 138 138 136 135 134 134 134 133 133 132 131 131 130 129 128 128 127 126 126 125 124 122 121 117 106 75 12 347 339 337 333 330 327 323 321 319 319 317 315 312 305 297 290 285
186 29 14 15 49 81 338 328 356 81 143 155 165 186 205 53 98 115 112 56 39 257 194 168 247 261 275 278 256 159 179 197 201 197 189 174 153 148 147 144 142 140 139 138 137 135 135 134 134 133 132 131 131 130 130 128 127 125 123 120 118 116 113 110 105 93 60 337 326 320 322 322 319 318 317 316 315 315 316 316 316 317 314 307 298 291
170 115 14 0 96 53 358 78 62 23 35 145 180 169 140 46 54 130 176 104 164 247 211 166 240 248 227 245 52 108 160 164 165 158 149 156 154 149 149 146 143 142 140 140 139 138 137 137 137 136 135 135 134 134 133 130 127 125 122 120 118 116 115 115 108 94 283 295 298 297 301 305 307 309 310 311 313 313 313 313 313 315 317 315 309 302
156 123 64 1 104 52 350 130 119 34 17 15 188 146 128 204 201 178 186 166 186 230 234 202 243 260 222 215 351 167 183 183 177 154 144 156 157 154 154 150 147 145 143 142 141 141 141 141 141 139 139 138 137 136 134 132 130 129 128 126 123 122 120 116 117 210 262 271 272 278 288 296 305 310 313 316 317 317 316 313 313 315 317 318 317 314
124 168 155 67 328 38 334 230 193 167 66 35 148 142 0 279 213 188 169 178 204 208 223 220 206 237 218 210 227 214 193 184 173 158 163 167 163 161 159 155 152 149 147 147 146 146 146 144 143 142 141 140 139 139 137 135 135 132 128 125 122 122 114 90 300 260 258 261 262 272 286 301 312 319 322 323 323 321 319 318 318 319 319 319 317 317
115 223 163 104 339 211 187 215 212 185 154 148 168 169 183 173 45 243 174 90 230 198 204 233 236 236 208 202 220 214 168 170 172 168 177 172 165 164 162 159 156 153 152 151 150 149 148 147 146 145 145 144 142 140 137 134 132 129 125 126 126 119 102 106 277 276 263 263 267 277 290 307 320 327 329 331 331 329 327 328 329 329 329 327 323 321
151 180 141 131 176 195 200 305 305 264 180 170 189 185 183 160 136 194 199 144 348 237 199 223 262 257 158 187 229 208 94 169 195 183 177 171 168 164 163 163 160 158 157 155 153 153 152 152 152 150 148 146 143 141 138 136 134 134 136 135 133 124 122 162 229 263 265 269 270 278 291 302 316 332 340 343 344 343 342 342 343 344 343 340 336 334
98 104 118 132 182 215 306 336 255 277 310 300 257 218 183 179 178 197 205 175 134 117 83 78 280 273 119 142 242 225 211 240 223 195 174 170 170 165 163 166 164 162 161 159 158 158 157 156 154 151 149 146 146 146 144 144 146 148 150 145 144 154 170 185 204 219 226 228 222 235 265 270 323 353 354 350 348 347 346 344 344 345 345 343 341 340
110 114 119 101 80 334 295 236 145 346 265 235 239 209 183 204 198 184 205 155 148 167 164 163 249 255 125 144 240 252 250 247 224 200 174 170 172 168 166 169 167 166 164 162 162 161 159 158 153 152 153 152 154 153 152 156 157 157 159 158 163 169 166 165 167 169 163 157 157 147 122 67 21 2 350 347 345 344 344 342 341 340 340 338 336 335
175 158 130 124 127 151 193 212 203 201 214 225 221 173 177 141 93 85 93 147 194 201 184 196 239 241 128 120 236 241 231 231 218 198 179 174 175 171 169 171 171 170 168 166 166 163 160 158 157 158 160 161 163 162 163 166 164 166 167 166 169 165 157 157 155 148 141 142 159 166 349 344 349 350 347 346 345 345 345 344 343 342 342 341 338 336
178 181 157 163 168 171 192 206 203 193 186 205 189 170 185 175 158 159 152 173 217 200 177 207 237 238 101 193 212 182 203 205 193 191 186 180 177 173 172 175 175 174 172 169 167 165 163 164 165 168 168 169 171 170 171 170 167 169 169 166 166 162 158 158 150 146 157 187 246 299 319 328 338 345 347 348 348 348 349 348 346 344 343 342 342 340
153 225 186 197 199 194 203 205 187 142 145 188 202 187 186 187 182 168 124 190 207 162 171 223 236 232 201 205 205 188 202 204 178 179 186 185 181 178 177 178 180 179 175 172 171 171 170 171 173 174 175 175 175 173 172 171 169 170 170 168 166 161 161 162 160 170 205 241 268 294 310 325 340 347 352 354 352 350 348 346 343 341 340 338 337 336
103 207 198 214 221 218 209 178 159 151 172 202 202 181 176 179 180 183 202 214 185 130 220 232 228 234 223 195 202 202 195 203 189 184 188 187 185 181 180 182 182 181 179 177 178 177 176 176 176 177 178 177 176 175 172 171 171 171 171 169 166 165 168 171 177 189 212 242 268 299 323 344 354 357 358 353 347 343 340 338 337 336 335 334 332 330
142 203 199 207 222 229 168 113 173 175 184 208 194 181 179 173 178 192 211 219 177 169 236 233 215 227 219 182 203 214 196 198 199 194 191 187 184 183 183 184 184 183 183 182 181 180 179 180 179 178 179 177 175 176 174 173 173 171 170 170 169 171 173 172 173 175 177 187 221 353 357 356 352 347 344 339 335 333 331 331 331 330 330 329 328 326
175 197 190 185 218 231 186 133 199 177 167 192 189 186 179 175 189 199 211 220 201 206 240 237 202 230 216 171 202 221 211 208 199 191 189 186 187 187 187 188 188 187 186 184 182 182 181 182 181 180 179 177 177 177 176 176 175 173 173 171 169 169 167 164 161 159 159 144 27 4 352 343 339 337 335 333 332 331 330 329 328 327 326 326 325 323
192 198 164 156 214 231 184 132 186 171 180 194 179 177 174 178 199 209 218 222 211 225 244 240 247 257 213 167 203 225 214 198 175 181 190 191 193 192 191 193 193 189 187 186 185 186 185 184 183 181 179 178 178 178 177 177 175 174 172 167 165 164 158 154 148 137 27 357 354 347 342 337 336 336 334 333 332 330 329 328 326 325 324 323 323 321
190 198 104 140 208 225 183 145 150 111 93 193 173 182 184 186 200 208 217 216 205 222 235 233 258 262 178 157 198 219 202 190 187 192 195 195 197 197 197 198 197 193 190 190 190 190 188 185 183 182 180 178 178 178 176 176 174 172 169 163 161 158 148 140 84 354 341 343 342 338 338 336 334 334 331 330 330 329 328 327 325 324 323 323 323 321
175 166 126 173 202 215 27 139 141 107 90 229 218 198 189 195 205 205 216 220 211 215 219 218 234 228 142 155 191 201 193 198 205 205 200 199 201 203 203 202 199 196 194 193 193 190 187 186 183 181 180 177 177 178 176 177 175 171 168 163 161 158 143 27 342 341 336 338 336 333 333 331 330 329 328 327 328 327 326 326 325 324 323 323 323 322
172 178 168 180 196 205 62 124 131 152 219 227 221 201 193 195 198 199 211 216 209 209 217 230 236 194 145 176 192 191 203 213 218 218 212 206 205 206 207 207 203 199 195 193 193 191 188 185 181 179 180 179 180 181 179 179 176 170 167 165 165 169 296 329 331 335 334 334 332 329 328 327 326 326 326 325 326 326 325 324 324 323 322 321 321 320
174 182 173 172 176 137 118 146 167 210 228 229 227 198 195 193 191 199 215 217 208 207 218 236 244 216 187 201 202 202 213 219 222 225 221 215 212 210 209 209 205 201 198 195 193 191 188 184 181 180 181 181 181 180 177 175 173 171 170 168 177 242 306 320 326 331 331 329 328 326 325 325 325 325 324 324 324 323 323 322 322 321 320 319 319 318
172 169 153 154 144 122 143 185 201 230 243 201 20 46 179 184 190 202 226 232 215 205 214 230 237 227 205 206 208 209 218 224 228 232 230 225 222 218 215 214 210 204 201 198 194 189 185 183 182 181 179 177 176 174 171 170 172 173 178 195 235 283 307 319 324 327 327 327 326 326 325 325 325 324 324 323 322 322 322 321 321 321 319 318 317 316
174 165 164 184 185 167 174 195 227 327 323 211 212 197 175 173 173 183 223 241 216 200 207 220 233 234 215 203 207 206 210 220 237 242 236 231 228 226 224 222 215 205 199 194 190 186 182 180 179 177 175 174 172 172 173 173 174 181 198 234 275 303 313 319 324 326 327 328 327 326 326 325 325 324 323 323 322 322 322 321 321 320 319 317 316 315
190 179 183 196 199 167 167 201 223 248 242 230 205 168 181 184 179 178 206 241 221 202 205 211 227 231 209 179 186 185 185 199 243 241 233 229 227 226 223 218 209 199 192 188 183 180 179 177 177 176 174 174 173 174 177 178 182 199 235 275 298 313 317 321 326 327 327 327 326 326 326 324 323 323 322 321 321 320 320 319 319 318 317 316 314 313
144 158 199 205 196 167 183 213 202 211 242 238 174 154 181 180 167 147 184 247 242 204 204 210 222 226 209 184 180 169 158 202 232 231 227 223 221 219 212 200 192 187 184 182 179 179 178 176 177 176 173 174 176 177 181 185 202 239 283 303 309 317 320 321 325 326 326 326 325 324 323 321 320 319 318 318 318 317 317 316 316 315 315 314 313 312
159 170 195 203 202 190 194 214 217 229 251 219 170 175 170 159 144 127 200 249 226 181 200 209 210 219 217 198 182 171 180 217 229 229 219 214 211 206 198 189 183 179 177 175 174 176 176 174 175 175 173 176 179 181 187 202 253 287 303 310 313 318 320 320 323 324 324 323 321 319 318 316 315 315 314 314 314 313 314 313 313 312 311 310 309 308
169 181 197 205 208 200 198 215 241 251 231 200 178 166 154 146 148 176 220 223 140 161 197 206 204 216 219 200 186 192 210 221 231 220 201 197 191 182 179 180 177 173 171 170 170 172 174 173 175 177 177 180 182 187 204 240 281 295 303 308 313 317 317 318 320 319 317 316 313 313 312 311 311 311 311 311 311 310 310 310 310 309 309 308 308 307
170 179 193 207 211 208 211 219 242 255 222 165 143 155 156 153 187 213 196 139 150 174 195 200 203 217 220 204 198 202 208 213 215 187 178 181 178 171 169 171 170 167 167 168 168 171 174 175 178 182 185 187 189 200 228 262 283 296 304 308 311 313 312 313 313 311 310 309 308 309 309 309 310 310 310 311 311 310 310 310 310 309 309 309 309 308
174 173 184 198 195 201 223 209 220 261 207 139 128 139 183 194 228 182 166 160 176 187 192 198 206 214 214 204 200 199 196 189 182 173 170 172 172 169 169 170 168 167 167 167 167 171 175 178 182 186 190 194 201 222 252 276 291 299 304 305 306 307 306 307 307 307 307 308 308 310 311 311 312 312 313 313 313 312 312 311 311 311 310 310 310 309
181 177 184 199 188 188 209 202 207 267 156 152 154 188 208 204 218 155 174 184 190 192 194 200 206 210 212 207 197 192 188 180 174 172 170 170 170 170 169 168 168 168 167 168 170 172 176 183 186 188 195 205 223 250 269 284 293 296 298 300 302 302 303 305 306 307 309 310 311 312 313 314 314 315 315 315 315 314 314 313 313 312 311 311 311 310
201 190 171 196 196 187 210 220 218 138 163 175 188 216 199 205 220 218 189 197 194 187 186 187 191 193 199 202 195 189 187 184 180 179 176 173 173 172 169 168 169 169 169 170 172 173 177 185 190 194 203 218 242 262 275 286 290 293 296 299 301 302 304 306 307 309 312 313 315 316 316 316 317 317 317 317 317 316 315 315 314 314 313 313 312 311
231 190 81 93 202 210 252 249 251 234 189 192 200 197 191 205 212 200 181 186 181 175 169 168 172 172 175 186 188 185 186 186 182 179 177 175 173 172 171 170 169 170 172 173 173 173 176 183 191 202 215 231 252 270 282 288 291 294 297 299 302 304 306 308 311 314 317 318 319 319 319 319 319 319 319 318 318 317 317 316 316 314 314 313 312 311
240 182 123 98 213 211 229 229 216 213 206 200 201 205 203 203 201 192 178 169 173 186 188 183 180 177 177 184 187 186 186 184 179 175 176 176 174 172 173 172 171 172 173 174 174 175 176 182 192 207 226 246 261 274 283 286 290 294 297 299 302 305 309 313 316 318 320 320 321 321 321 321 320 319 319 319 318 317 317 315 314 313 312 312 312 312
198 173 163 199 208 196 228 240 208 212 218 210 211 214 212 208 207 208 214 222 223 222 216 207 200 192 185 186 192 192 186 183 182 180 177 176 175 174 173 173 172 171 172 173 176 178 180 188 200 213 233 251 262 270 275 280 286 291 296 301 306 309 313 316 318 320 321 321 322 322 321 321 321 320 320 319 318 317 317 316 315 314 313 313 313 313
158 168 175 190 200 219 260 240 166 251 280 238 222 217 214 215 217 219 226 234 234 230 224 214 204 198 192 192 198 197 188 185 186 185 180 177 176 174 172 173 172 172 175 177 181 184 191 203 214 225 236 245 254 262 269 277 286 293 299 305 310 314 317 319 320 321 322 322 322 322 322 321 321 320 319 319 318 318 317 317 317 316 314 314 314 313
161 180 186 173 191 226 239 184 165 176 257 233 225 223 221 220 221 223 227 230 232 231 227 216 202 195 196 198 201 201 195 189 186 185 181 177 175 175 175 175 176 178 180 184 188 197 207 215 223 231 236 243 251 259 270 281 290 298 307 313 317 320 321 321 321 322 322 322 322 321 321 321 321 321 321 321 321 320 319 318 318 317 316 315 314 313
200 192 182 187 207 232 235 202 193 203 230 238 235 235 233 229 228 232 235 236 235 233 227 218 209 201 197 197 198 201 200 192 186 183 180 176 176 177 177 178 181 184 188 194 202 209 216 222 228 233 238 246 253 262 276 289 300 310 316 319 321 321 321 321 321 321 321 322 321 321 322 322 323 323 324 324 324 323 322 320 319 318 317 318 317 316